Lid_Strength_Index
3 3 3 3 4 4 4 4 4 4 4 4 3 3 3 3 3 3 2 2 2 2 2 2 3 3 6 9 10 7 3 4 5 6 8 5 7 9 11 10 9 9 8 6 5 5 6
3 3 3 3 4 4 4 4 4 4 3 3 3 3 3 3 3 3 3 2 2 2 2 2 2 3 7 12 7 5 5 5 6 7 7 8 6 8 8 8 10 9 8 7 6 6 6
4 3 4 3 3 3 3 3 3 3 3 3 3 3 3 3 3 3 2 2 2 2 2 2 2 4 8 9 5 4 4 5 5 6 8 8 8 6 8 10 7 8 10 9 9 8 7
4 3 3 3 3 3 4 4 4 4 4 4 3 3 3 3 3 3 2 2 2 2 1 2 2 5 9 5 3 4 4 5 5 5 6 6 8 10 8 7 9 10 9 11 9 10 9
4 4 4 4 4 3 3 3 3 3 3 3 3 3 3 3 3 3 2 2 2 2 2 2 5 6 9 4 6 5 4 7 6 6 6 6 8 10 9 11 11 10 13 12 10 8 9
4 4 4 4 4 4 4 3 3 3 3 3 3 3 3 3 3 2 2 2 2 1 2 3 4 8 7 9 7 6 5 5 7 7 9 9 9 11 10 11 15 13 13 11 11 9 8
4 4 4 4 4 4 4 3 3 3 3 3 3 3 3 3 3 2 3 5 7 8 7 9 9 9 8 6 5 6 5 7 7 8 11 10 13 14 12 10 10 11 12 12 10 8 9
4 4 4 4 4 4 4 3 3 3 3 3 3 3 3 3 3 3 5 7 7 7 10 7 7 8 7 7 9 7 5 9 9 10 10 12 14 11 11 10 11 11 12 13 11 9 10
4 4 4 4 4 4 4 4 4 4 3 3 4 3 3 3 3 5 6 6 5 6 10 9 8 8 7 7 9 8 5 6 7 8 8 10 10 10 11 11 12 11 12 12 13 10 9
4 4 4 4 4 4 4 3 3 3 3 4 4 4 4 4 6 6 6 5 4 5 13 12 9 8 7 6 8 4 3 5 7 9 8 9 7 9 9 11 10 13 10 11 11 12 14
4 4 4 4 4 4 4 4 4 4 4 4 4 3 4 4 6 6 5 4 5 7 19 11 9 5 5 8 7 5 2 4 8 8 8 10 9 9 9 9 8 10 9 11 11 13 13
4 4 4 4 4 3 3 3 4 4 3 4 4 3 4 5 5 5 4 5 6 13 19 12 8 9 8 6 6 5 5 4 5 8 8 8 6 7 8 7 8 7 9 10 10 12 17
4 4 4 4 4 4 4 4 3 3 4 4 4 4 5 5 6 4 5 7 13 17 11 12 11 8 8 8 8 7 8 9 11 14 13 10 9 7 7 9 7 8 10 14 16 16 18
4 4 4 4 4 4 4 4 4 4 4 4 4 5 4 4 3 4 7 10 17 14 12 9 9 8 10 8 8 8 9 10 9 10 13 15 16 9 7 8 9 9 10 13 18 17 17
4 4 4 4 4 4 5 5 4 4 4 5 5 5 5 4 4 5 8 13 14 12 10 10 9 11 11 9 9 9 9 10 9 8 13 14 15 8 7 7 7 9 12 9 12 12 15
4 4 4 4 4 4 4 5 5 4 4 5 7 6 5 4 4 5 9 13 12 9 8 8 12 10 13 11 11 10 10 8 9 8 7 10 14 9 9 7 7 9 8 12 11 17 18
5 4 5 4 4 5 5 5 5 4 5 5 7 7 5 5 4 7 11 12 10 8 7 9 10 11 11 11 10 11 11 8 7 8 7 9 12 11 9 11 11 12 11 10 10 12 16
4 4 4 4 4 4 4 4 5 5 5 6 9 10 5 5 9 11 10 10 8 8 7 8 8 9 10 10 11 11 11 9 6 7 10 9 11 14 12 8 7 9 10 10 13 14 14
4 4 4 4 4 4 4 5 5 4 5 7 10 10 6 6 12 11 10 10 9 9 8 8 9 8 8 10 13 11 10 7 6 7 9 9 12 15 12 11 9 10 9 9 10 11 14
4 4 4 3 4 4 4 5 5 5 5 7 10 12 10 9 10 12 12 11 11 7 8 7 8 8 9 11 9 12 11 8 6 7 6 7 11 13 15 13 11 12 11 9 11 14 13
4 4 4 3 3 4 4 5 5 5 5 8 11 12 11 13 12 12 11 11 11 11 8 7 9 9 11 13 11 11 10 9 8 7 7 9 14 11 11 10 10 11 11 11 12 11 14
5 4 4 4 4 4 4 5 5 5 6 9 13 13 11 13 12 11 11 11 11 10 10 10 10 9 9 12 11 12 10 10 11 9 9 9 14 11 13 11 11 12 10 10 10 10 11
4 4 4 4 4 4 5 5 5 5 6 10 10 10 11 12 12 12 11 11 11 10 9 7 8 9 10 9 8 7 7 8 9 10 11 12 13 13 15 11 11 14 11 10 10 9 10
4 4 4 4 5 5 5 5 5 5 5 8 9 9 12 14 13 11 10 10 11 10 9 7 7 9 7 5 6 7 8 9 9 9 9 12 12 12 15 13 19 10 8 9 10 10 9
4 4 4 5 5 5 5 5 5 5 5 7 8 9 12 14 12 11 10 10 10 9 9 8 6 6 5 7 10 12 11 11 11 10 11 10 12 15 16 16 12 11 10 11 12 11 8
4 4 5 5 6 6 5 5 5 5 5 5 7 7 10 13 12 10 10 10 11 10 9 7 6 5 7 9 11 15 16 14 15 13 10 10 10 13 14 17 18 13 9 8 9 15 7
4 5 5 5 5 5 5 5 5 5 4 5 6 6 9 12 10 10 11 11 9 10 10 9 8 7 7 10 14 14 15 12 16 16 15 14 14 16 15 16 13 10 8 7 16 13 8
5 5 5 5 5 5 5 5 5 5 5 5 6 7 9 11 10 8 7 9 9 10 11 8 8 8 8 11 12 13 14 13 14 13 14 15 15 16 15 17 18 9 10 12 9 7 8
5 5 5 5 5 5 5 5 5 5 5 5 7 5 6 10 10 6 5 4 6 6 8 7 8 8 7 10 10 10 13 12 13 16 11 15 13 14 14 14 10 10 12 8 6 7 8